Hourly Data Report for October 17, 2016

All times are specified in Local Standard Time (LST). Add 1 hour to adjust for Daylight Saving Time where and when it is observed.

KUGLUKTUK A
NUNAVUT

67°49'00.000" N
115°08'38.000" W
22.60 m
2300903
71938
YCO

Download Data

Hourly Data (October 2016)
Hourly Data Report for October 17, 2016
Temp Definition
°C
Dew Point Temp Definition
°C
Rel Hum Definition
%
Wind Dir Definition
10's deg

Wind Spd Definition
km/h
Visibility Definition
km
Stn Press Definition
kPa
Hmdx Definition


Wind Chill Definition


Weather Definition


TIME
00:00 Legend Double Dagger -13.4 -15.6 84 21 13 24.1 101.53   -20 LegendNANA
01:00 Legend Double Dagger -12.3 -14.3 85 19 10 19.3 101.55   -18 Snow Showers
02:00 Legend Double Dagger -10.1 -12.8 81 15 7 16.1 101.58   -14 Snow Showers
03:00 Legend Double Dagger -11.1 -13.2 85 20 10 16.1 101.60   -17 Snow Showers
04:00 Legend Double Dagger -9.9 -12.0 85 17 7 12.9 101.61   -14 Snow Showers
05:00 Legend Double Dagger -8.9 -11.1 84 17 6 16.1 101.62   -12 Snow Showers
06:00 Legend Double Dagger -9.6 -11.8 84 19 8 16.1 101.64   -14 Snow Showers
07:00 Legend Double Dagger -10.1 -11.9 87 22 11 16.1 101.66   -16 Snow Showers
08:00 Legend Double Dagger -9.9 -11.8 86 25 4 16.1 101.68   -12 Snow Showers
09:00 Legend Double Dagger -9.7 -11.6 86 22 7 19.3 101.71   -14 Snow Showers
10:00 Legend Double Dagger -9.3 -11.7 83 21 9 16.1 101.69   -14 Snow Showers
11:00 Legend Double Dagger -9.8 -12.2 83 22 14 24.1 101.71   -16 Snow Showers
12:00 Legend Double Dagger -8.9 -11.4 82 19 12 19.3 101.72   -15 LegendNANA
13:00 Legend Double Dagger -8.5 -12.0 76 18 13 19.3 101.72   -14 LegendNANA
14:00 Legend Double Dagger -9.1 -13.1 73 17 14 19.3 101.74   -15 Mainly Clear
15:00 Legend Double Dagger -8.6 -12.8 72 16 7 19.3 101.71   -12 LegendNANA
16:00 Legend Double Dagger -10.2 -13.5 77 11 12 19.3 101.68   -16 Snow
17:00 Legend Double Dagger -11.7 -14.5 80 11 10 19.3 101.66   -17 Mostly Cloudy
18:00 Legend Double Dagger -10.1 -13.1 79 11 9 16.1 101.64   -15 Snow
19:00 Legend Double Dagger -8.9 -11.9 79 12 16 9.7 101.60   -16 Snow
20:00 Legend Double Dagger -8.1 -11.8 75 11 22 19.3 101.54   -16 Snow
21:00 Legend Double Dagger -8.1 -11.6 76 12 20 24.1 101.49   -15 Snow
22:00 Legend Double Dagger -10.2 -13.2 79 13 11 24.1 101.47   -16 LegendNANA
23:00 Legend Double Dagger -9.2 -12.2 79 12 12 24.1 101.43   -15 Mostly Cloudy

Notes on Data Quality.

Legend

  • E = Estimated
  • M = Missing
  • NA = Not Available
  • ‡ = Partner data that is not subject to review by the National Climate Archives
Date modified: